Miscellaneous Local Product
Issued by NWS North Platte, NE

Home | Current Version | Previous Version | Graphics & Text | Print | Product List | Glossary On
Versions: 1 2 3 4 5 6 7 8 9 10 11 12 13 14 15 16 17 18 19 20 21 22 23 24 25 26 27 28 29 30 31 32 33 34 35 36 37 38 39 40 41 42 43 44 45 46 47 48 49 50
000
AXUS43 KLBF 241810
MISLBF


WESTERN AND NORTH CENTRAL NEBRASKA HOURLY WEATHER ROUNDUP
NATIONAL WEATHER SERVICE NORTH PLATTE NE
1200 PM CST WED DEC 24 2014

***STATIONS NOT REPORTING VARIABLES SUCH AS SKY/WEATHER OR
PRESSURE ARE PROVIDED BY THE NEBRASKA DEPARTMENT OF
ROADS...RAWS...AND APRS NETWORKS...AND ARE NOT UNDER
NATIONAL WEATHER SERVICE QUALITY CONTROL***

...OBSERVATIONS IN AND NEAR THE EASTERN PANHANDLE OF NEBRASKA...

CITY           SKY/WX    TMP DP  RH WIND       PRES   REMARKS
PINE RIDGE     PTSUNNY   31  17  56 SW3       29.71F
CHADRON        CLOUDY    35  22  58 CALM      29.71F
ALLIANCE       SUNNY     36  20  52 W17       29.72F WCI  26
SIDNEY         SUNNY     37  19  48 SW12      29.77F WCI  29
WHITECLAY        N/A     34  15  46 CALM        N/A
CRESCENT LAKE    N/A     37  19  47 W10         N/A  WCI  30
LISCO            N/A     37  18  45 W5          N/A  WCI  33
BIG SPRINGS      N/A     32  22  66 W15         N/A  WCI  22
$$

...OBSERVATIONS IN NORTH CENTRAL NEBRASKA...

CITY           SKY/WX    TMP DP  RH WIND       PRES   REMARKS
VALENTINE      SUNNY     30  20  66 S6        29.73F WCI  24
THEDFORD       SUNNY     32  22  66 S7        29.78F WCI  26
AINSWORTH      SUNNY     31  19  63 SW9       29.76F WCI  22
O`NEILL        PTSUNNY   26  24  92 SW7       29.80F WCI  19
ORD            SUNNY     31  20  63 W8        29.82F WCI  23
BROKEN BOW     SUNNY     32  22  66 W7        29.81F WCI  26
BROWNLEE         N/A     27  18  69 S8          N/A  WCI  18
SPRINGVIEW       N/A     25  19  76 CALM        N/A
BREWSTER         N/A     35  21  56 W8          N/A  WCI  29
ROSE             N/A     33  24  69 S6          N/A  WCI  28
COMSTOCK         N/A     35  25  67 W8          N/A  WCI  28
CHAMBERS         N/A     28  22  78 CALM        N/A
EWING            N/A     26  25  95 CALM        N/A
$$

...OBSERVATIONS IN SOUTHWEST NEBRASKA AND FAR NORTHEAST COLORADO...

CITY           SKY/WX    TMP DP  RH WIND       PRES   REMARKS
WRAY           FAIR      36  19  50 SW10      29.84F WCI  29
HOLYOKE        FAIR      37  19  48 W18       29.81F WCI  27
IMPERIAL       SUNNY     33  18  53 SW12      29.82F WCI  24
OGALLALA       SUNNY     30  19  62 SW13      29.79F WCI  20
NORTH PLATTE   SUNNY     34  19  54 W7        29.81F WCI  28
MCCOOK         SUNNY     32  17  54 W9        29.87F WCI  24
LEXINGTON      SUNNY     34  22  62 W3        29.85F
PAXTON           N/A     32  24  72 SW8         N/A  WCI  25
BRADY            N/A     27  21  78 CALM        N/A
GOTHENBURG       N/A     36  21  53 SW3         N/A
CALLAWAY         N/A     32  25  74 SW6         N/A  WCI  26
$$

...NORTH PLATTE AREA...

CITY           SKY/WX    TMP DP  RH WIND       PRES   REMARKS
AIRPORT        SUNNY     34  19  54 W7        29.81F WCI  28
DOWNTOWN         N/A     29  20  68 W3          N/A
$$

...SOME WEATHER OBSERVATIONS FROM AROUND THE REGION...

CITY           SKY/WX    TMP DP  RH WIND       PRES   REMARKS
DENVER         MOSUNNY   45  13  27 S9        29.78F
LARAMIE        MOSUNNY   27  13  55 SW23G32   29.79F WCI  12
CHEYENNE       SUNNY     38  18  44 W28G40    29.73F WCI  26
SCOTTSBLUFF    SUNNY     27  19  72 E8        29.74F WCI  19
RAPID CITY     CLOUDY    32  20  61 CALM      29.64F
PIERRE         MOSUNNY   22  17  81 SE9       29.71F WCI  12
WINNER         FAIR      26  16  65 SW12      29.74F WCI  16
SIOUX FALLS    FRZ DRZL  26  24  92 NW9       29.79F FOG     WCI  17
OMAHA          CLOUDY    32  29  88 NW15      29.85F WCI  22
GRAND ISLAND   FAIR      34  23  64 NW10      29.85F WCI  26
KANSAS CITY    FLURRIES  36  33  89 NW10      29.83F WCI  28
WICHITA        CLOUDY    38  28  67 NW13      29.95F WCI  30
HAYS           FAIR      37  19  48 W14       29.93F WCI  29
LIBERAL        FAIR      39  23  52 W12G17    30.01F WCI  32
GOODLAND       SUNNY     36  16  44 SW14      29.88F WCI  27
$$



USA.gov is the U.S. government's official web portal to all federal, state and local government web resources and services.